User: anonymous   Login
Location: Unspecified
(0.0000°N, 0.0000°E)
Time: 01:48:45
(UTC+00:00)
Language:

TBA - TO BE ASSIGNED - Orbit

View from above orbital plane
View from above orbital plane
View from above satellite
View from above satellite

Ground track
Ground track

The orbit is defined by the following mean orbital elements,

1 67925U          26145.46706711 +.00000000 +00000-0 +28008-3 0 00003
2 67925  43.0037 171.7180 0001748 252.0090 108.0571 15.27583685    03
Epoch (UTC): 25 May 2026 11:12:34
Eccentricity: 0.0001748
inclination: 43.0037°
perigee height: 482 km
apogee height: 484 km
right ascension of ascending node: 171.7180°
argument of perigee: 252.0090°
revolutions per day: 15.27583685
mean anomaly at epoch: 108.0571°

The dashed part of the orbit path shows where the satellite is in the earth's shadow,  

DLR